Flag for Canada Weather past 2 weeks in Dawson Creek, British Columbia, Canada

Now
70 °F

Overcast.


Feels Like: 70 °F
Forecast: 59 / 73 °F
Wind: 12 mph from West

Location: Dawson Creek Airport

Current Time: Jul 3, 2015 at 1:10:26 AM

Latest Report: Jul 3, 2015 at 12:00 AM


Visibility: 9 mi

Pressure: 29.83 "Hg

Humidity: 40%

Dew point: 45 °F

Location of Dawson CreekLocation

Historic Weather in Dawson Creek — Graph

°F

Dawson Creek temperature yesterday

Maximum temperature yesterday: 86 °F (at 3:00 PM)
Minimum temperature yesterday: 57 °F (at 4:00 AM)
Average temperature yesterday: 73 °F

Past Weeks' High & Low Weather Summary

 TemperatureHumidityPressure
High86 °F (Jun 29, 1:54 PM)100% (Jun 23, 1:00 AM)30.13 "Hg (Jun 23, 1:00 AM)
Low43 °F (Jun 18, 1:00 AM)17% (Jul 2, 3:00 PM)29.82 "Hg (Jul 2, 11:00 PM)
Average64 °F65%29.98 "Hg
* Reported Midnight between Jun 17 and Jun 18 — Midnight between Jul 2 and Jul 3, Dawson Creek, Weather by CustomWeather, © 2015

Note: Actual official high and low records may vary slightly from our data, if they occured in-between our weather recording intervals... More about our weather records

Advertising

Dawson Creek weather history for previous 24 hours

 ConditionsComfort  
Time TempWeatherWind HumidityBarometerVisibility
12:00 AM
Fri, Jul 3
70 °FOvercast.12 mph40%29.83 "Hg9 mi
11:00 PM
Thu, Jul 2
75 °FOvercast.12 mph34%29.82 "Hg9 mi
10:00 PM75 °FOvercast.12 mph34%29.83 "Hg9 mi
9:00 PM77 °FMostly cloudy.10 mph32%29.83 "Hg9 mi
8:00 PM79 °FMostly cloudy.13 mph30%29.83 "Hg9 mi
7:00 PM81 °FMostly cloudy.16 mph28%29.84 "Hg9 mi
6:00 PM84 °FPassing clouds.16 mph27%29.85 "Hg9 mi
5:00 PM84 °FSunny.17 mph22%29.86 "Hg9 mi
4:00 PM86 °FSunny.15 mph20%29.88 "Hg9 mi
3:00 PM86 °FSunny.17 mph17%29.90 "Hg9 mi
2:00 PM84 °FSunny.14 mph29%29.92 "Hg9 mi
1:00 PM82 °FSunny.8 mph35%29.93 "Hg9 mi
12:00 PM77 °FSunny.7 mph44%29.96 "Hg7 mi
11:00 AM77 °FSunny.10 mph42%29.98 "Hg9 mi
10:00 AM75 °FSunny.7 mph47%29.98 "Hg9 mi
9:00 AM72 °FSunny.6 mph53%30.00 "Hg9 mi
8:00 AM70 °FSunny.2 mph60%30.01 "Hg9 mi
7:00 AM63 °FSunny.7 mph68%30.01 "Hg9 mi
6:00 AM61 °FSunny.9 mph72%30.02 "Hg9 mi
5:00 AM59 °FPassing clouds.9 mph77%30.02 "Hg9 mi
4:00 AM57 °FClear.2 mph82%30.03 "Hg9 mi
3:00 AM59 °FClear.2 mph82%30.04 "Hg9 mi
2:00 AM61 °FClear.5 mph77%30.04 "Hg9 mi
1:00 AM64 °FClear.5 mph73%30.03 "Hg9 mi
Weather by CustomWeather, © 2015

See weather overviewHow to use our weather pages